St. Cloud, MN

12:12 PM CDT on September 25, 2017 (GMT -0500)
Saint Cloud Regional

Weather History for KSTC - June, 2012

Change the Weather History Date:

Thursday, June 21, 2012

  Actual Average Record
Temperature  
Mean Temperature 68 °F 67 °F  
Max Temperature 78 °F 79 °F 95 °F (1910)
Min Temperature 58 °F 55 °F 34 °F (1992)
Degree Days  
Heating Degree Days 0 2  
Month to date heating degree days 30 68  
Since 1 June heating degree days 30 68  
Since 1 July heating degree days 6746 8522  
Cooling Degree Days 3 4  
Month to date cooling degree days 92 53  
Year to date cooling degree days 143 78  
Since 1 June cooling degree days 92 53  
Growing Degree Days 16 (Base 50)    
Moisture  
Dew Point 55 °F    
Average Humidity 70    
Maximum Humidity 97    
Minimum Humidity 43    
Precipitation  
Precipitation 0.00 in 0.15 in 2.83 in (1956)
Month to date precipitation 2.36 2.93  
Year to date precipitation 16.68 11.24  
Snow  
Snow 0.00 in 0.00 in 0.00 in ()
Month to date snowfall 0.0 0.0  
Since 1 June snowfall 0.0 0.0  
Since 1 July snowfall 27.4 45.7  
Snow Depth 0.00 in    
Sea Level Pressure  
Sea Level Pressure 29.97 in    
Wind  
Wind Speed 10 mph (West)    
Max Wind Speed 20 mph    
Max Gust Speed 25 mph    
Visibility 10 miles    
Events      
T = Trace of Precipitation, MM = Missing Value Source: NWS Daily Summary

Daily Weather History Graph

Daily Weather History Graph

Search for Another Location

Airport or City:

Trip Planner

Search our weather history database for the weather conditions in past years. The results will help you decide how hot, cold, wet, or windy it might be!

Date:

Astronomy

Jun. 21, 2012 Rise Set
Actual Time 5:27 AM CDT 9:08 PM CDT
Civil Twilight 4:49 AM CDT 9:47 PM CDT
Nautical Twilight 3:58 AM CDT 10:38 PM CDT
Astronomical Twilight 2:48 AM CDT 11:47 PM CDT
Moon 7:32 AM CDT (6/21) 10:24 PM CDT (6/21)
Length of Visible Light 16h 57m
Length of Day
15h 41m
Waxing Crescent, 4% of the Moon is Illuminated
Jun 21
Waxing Crescent
Jun 26
First Quarter
Jul 3
Full
Jul 10
Last Quarter
Jul 18
New

Hourly Weather History & Observations

Time (CDT) Temp. Dew Point Humidity Pressure Visibility Wind Dir Wind Speed Gust Speed Precip Events Conditions
12:53 AM 61.0 °F 59.0 °F 93% 29.89 in 10.0 mi SSW 5.8 mph - N/A   Partly Cloudy
1:53 AM 62.1 °F 59.0 °F 90% 29.88 in 10.0 mi SSW 9.2 mph - N/A   Clear
2:53 AM 60.1 °F 57.9 °F 93% 29.87 in 10.0 mi WSW 6.9 mph - N/A   Clear
3:53 AM 60.1 °F 57.0 °F 90% 29.88 in 10.0 mi West 8.1 mph - N/A   Clear
4:53 AM 59.0 °F 55.0 °F 87% 29.91 in 10.0 mi West 9.2 mph - N/A   Clear
5:53 AM 57.9 °F 54.0 °F 87% 29.93 in 10.0 mi West 8.1 mph - N/A   Clear
6:53 AM 60.1 °F 54.0 °F 80% 29.96 in 10.0 mi West 12.7 mph - N/A   Clear
7:34 AM 60.8 °F 53.6 °F 77% 29.95 in 10.0 mi NW 15.0 mph 23.0 mph N/A   Mostly Cloudy
7:53 AM 60.1 °F 55.0 °F 83% 29.98 in 10.0 mi NW 11.5 mph - N/A   Overcast
8:12 AM 60.8 °F 53.6 °F 77% 29.96 in 10.0 mi NW 10.4 mph - N/A   Mostly Cloudy
8:53 AM 64.0 °F 55.0 °F 73% 29.99 in 10.0 mi NW 11.5 mph 20.7 mph N/A   Mostly Cloudy
8:58 AM 64.4 °F 55.4 °F 73% 29.97 in 10.0 mi NW 10.4 mph - N/A   Clear
9:53 AM 68.0 °F 55.0 °F 63% 30.00 in 10.0 mi NW 15.0 mph 19.6 mph N/A   Partly Cloudy
10:53 AM 69.1 °F 53.1 °F 57% 30.01 in 10.0 mi WNW 15.0 mph 19.6 mph N/A   Scattered Clouds
11:53 AM 72.0 °F 53.1 °F 51% 30.01 in 10.0 mi WNW 12.7 mph - N/A   Clear
12:53 PM 73.0 °F 52.0 °F 48% 30.02 in 10.0 mi WNW 13.8 mph 21.9 mph N/A   Partly Cloudy
1:53 PM 73.9 °F 52.0 °F 46% 30.01 in 10.0 mi WNW 19.6 mph 25.3 mph N/A   Scattered Clouds
2:53 PM 75.9 °F 52.0 °F 43% 30.01 in 10.0 mi WNW 18.4 mph 24.2 mph N/A   Scattered Clouds
3:53 PM 75.9 °F 52.0 °F 43% 29.99 in 10.0 mi WNW 12.7 mph 21.9 mph N/A   Clear
4:53 PM 75.9 °F 52.0 °F 43% 29.99 in 10.0 mi WNW 13.8 mph 20.7 mph N/A   Partly Cloudy
5:53 PM 75.0 °F 53.1 °F 46% 29.97 in 10.0 mi WNW 9.2 mph - N/A   Scattered Clouds
6:53 PM 75.0 °F 53.1 °F 46% 29.97 in 10.0 mi WNW 8.1 mph - N/A   Mostly Cloudy
7:53 PM 73.9 °F 53.1 °F 48% 29.97 in 10.0 mi West 10.4 mph - N/A   Partly Cloudy
8:53 PM 69.1 °F 57.0 °F 65% 29.98 in 10.0 mi WSW 4.6 mph - N/A   Clear
9:53 PM 66.9 °F 57.0 °F 70% 29.99 in 10.0 mi WSW 3.5 mph - N/A   Clear
10:53 PM 61.0 °F 57.0 °F 87% 30.00 in 10.0 mi SW 4.6 mph - N/A   Clear
11:53 PM 59.0 °F 55.9 °F 90% 30.00 in 10.0 mi WSW 3.5 mph - N/A   Clear